Time,TemperatureF,DewpointF,PressureIn,WindDirection,WindDirectionDegrees,WindSpeedMPH,WindSpeedGustMPH,Humidity,HourlyPrecipIn,Conditions,Clouds,dailyrainin,SolarRadiationWatts/m^2,SoftwareType,DateUTC
2013-08-06 00:02:00,66.0,61.0,-100.00,North,1,1.0,4.0,84,0.00,,,0.00,0.000000,,2013-08-06 04:02:00,
2013-08-06 00:33:00,66.0,62.0,-100.00,North,0,1.0,4.0,87,0.00,,,0.00,0.000000,,2013-08-06 04:33:00,
2013-08-06 00:44:00,66.0,62.0,-100.00,North,0,1.0,4.0,87,0.00,,,0.00,0.000000,,2013-08-06 04:44:00,
2013-08-06 00:54:00,66.0,62.0,-100.00,North,0,1.0,4.0,87,0.00,,,0.00,0.000000,,2013-08-06 04:54:00,
2013-08-06 01:02:00,66.0,62.0,-100.00,North,0,1.0,4.0,87,0.00,,,0.00,0.000000,,2013-08-06 05:02:00,
2013-08-06 01:43:00,66.0,62.0,-100.00,North,1,0.0,3.0,87,0.00,,,0.00,0.000000,,2013-08-06 05:43:00,
2013-08-06 01:53:00,66.0,62.0,-100.00,North,1,0.0,3.0,87,0.00,,,0.00,0.000000,,2013-08-06 05:53:00,
2013-08-06 02:02:00,66.0,62.0,-100.00,North,1,0.0,3.0,87,0.00,,,0.00,0.000000,,2013-08-06 06:02:00,
2013-08-06 02:32:00,66.0,63.0,-100.00,North,1,0.0,2.0,90,0.00,,,0.00,0.000000,,2013-08-06 06:32:00,
2013-08-06 02:43:00,66.0,63.0,-100.00,North,1,0.0,2.0,90,0.00,,,0.00,0.000000,,2013-08-06 06:43:00,
2013-08-06 02:52:00,66.0,63.0,-100.00,North,1,0.0,2.0,90,0.00,,,0.00,0.000000,,2013-08-06 06:52:00,
2013-08-06 03:01:00,66.0,63.0,-100.00,North,1,0.0,2.0,90,0.00,,,0.00,0.000000,,2013-08-06 07:01:00,
2013-08-06 03:32:00,65.0,63.0,-100.00,North,1,1.0,3.0,92,0.03,,,0.03,0.000000,,2013-08-06 07:32:00,
2013-08-06 03:44:00,65.0,63.0,-100.00,North,1,1.0,3.0,92,0.03,,,0.03,0.000000,,2013-08-06 07:44:00,
2013-08-06 03:53:00,65.0,63.0,-100.00,North,1,1.0,3.0,92,0.03,,,0.03,0.000000,,2013-08-06 07:53:00,
2013-08-06 04:02:00,65.0,63.0,-100.00,North,1,1.0,3.0,92,0.03,,,0.03,0.000000,,2013-08-06 08:02:00,
2013-08-06 04:33:00,64.0,63.0,-100.00,North,1,1.0,2.0,96,0.02,,,0.05,0.000000,,2013-08-06 08:33:00,
2013-08-06 04:43:00,64.0,63.0,-100.00,North,1,1.0,2.0,96,0.02,,,0.05,0.000000,,2013-08-06 08:43:00,
2013-08-06 04:52:00,64.0,63.0,-100.00,North,1,1.0,2.0,96,0.02,,,0.05,0.000000,,2013-08-06 08:52:00,
2013-08-06 05:01:00,64.0,63.0,-100.00,North,1,1.0,2.0,96,0.02,,,0.05,0.000000,,2013-08-06 09:01:00,
2013-08-06 05:33:00,64.0,63.0,-100.00,North,0,0.0,0.0,97,0.00,,,0.05,0.000000,,2013-08-06 09:33:00,
2013-08-06 05:43:00,64.0,63.0,-100.00,North,0,0.0,0.0,97,0.00,,,0.05,0.000000,,2013-08-06 09:43:00,
2013-08-06 05:52:00,64.0,63.0,-100.00,North,0,0.0,0.0,97,0.00,,,0.05,0.000000,,2013-08-06 09:52:00,
2013-08-06 06:01:00,64.0,63.0,-100.00,North,0,0.0,0.0,97,0.00,,,0.05,0.000000,,2013-08-06 10:01:00,
2013-08-06 06:32:00,64.0,63.0,-100.00,North,1,0.0,2.0,97,0.00,,,0.05,0.000000,,2013-08-06 10:32:00,
2013-08-06 06:43:00,64.0,63.0,-100.00,North,1,0.0,2.0,97,0.00,,,0.05,0.000000,,2013-08-06 10:43:00,
2013-08-06 06:53:00,64.0,63.0,-100.00,North,1,0.0,2.0,97,0.00,,,0.05,0.000000,,2013-08-06 10:53:00,
2013-08-06 07:02:00,64.0,63.0,-100.00,North,1,0.0,2.0,97,0.00,,,0.05,0.000000,,2013-08-06 11:02:00,
2013-08-06 07:32:00,64.0,63.0,-100.00,North,1,0.0,0.0,98,0.00,,,0.05,3.000000,,2013-08-06 11:32:00,
2013-08-06 07:43:00,64.0,63.0,-100.00,North,1,0.0,0.0,98,0.00,,,0.05,3.000000,,2013-08-06 11:43:00,
2013-08-06 07:53:00,64.0,63.0,-100.00,North,1,0.0,0.0,98,0.00,,,0.05,3.000000,,2013-08-06 11:53:00,
2013-08-06 08:02:00,64.0,63.0,-100.00,North,1,0.0,0.0,98,0.00,,,0.05,3.000000,,2013-08-06 12:02:00,
2013-08-06 08:32:00,65.0,64.0,-100.00,North,1,1.0,2.0,97,0.00,,,0.05,45.000000,,2013-08-06 12:32:00,
2013-08-06 08:43:00,65.0,64.0,-100.00,North,1,1.0,2.0,97,0.00,,,0.05,45.000000,,2013-08-06 12:43:00,
2013-08-06 08:52:00,65.0,64.0,-100.00,North,1,1.0,2.0,97,0.00,,,0.05,45.000000,,2013-08-06 12:52:00,
2013-08-06 09:02:00,65.0,64.0,-100.00,North,1,1.0,2.0,97,0.00,,,0.05,45.000000,,2013-08-06 13:02:00,
2013-08-06 09:42:00,68.0,66.0,-100.00,North,4,2.0,4.0,93,0.00,,,0.05,167.000000,,2013-08-06 13:42:00,
2013-08-06 09:53:00,68.0,66.0,-100.00,North,4,2.0,4.0,93,0.00,,,0.05,167.000000,,2013-08-06 13:53:00,
2013-08-06 10:01:00,68.0,66.0,-100.00,North,4,2.0,4.0,93,0.00,,,0.05,167.000000,,2013-08-06 14:01:00,
2013-08-06 10:42:00,71.0,66.0,-100.00,North,1,2.0,4.0,84,0.00,,,0.05,321.000000,,2013-08-06 14:42:00,
2013-08-06 10:53:00,71.0,66.0,-100.00,North,1,2.0,4.0,84,0.00,,,0.05,321.000000,,2013-08-06 14:53:00,
2013-08-06 11:02:00,71.0,66.0,-100.00,North,1,2.0,4.0,84,0.00,,,0.05,321.000000,,2013-08-06 15:02:00,
2013-08-06 11:33:00,73.0,67.0,-100.00,North,0,2.0,3.0,81,0.00,,,0.05,276.000000,,2013-08-06 15:33:00,
2013-08-06 11:44:00,73.0,67.0,-100.00,North,0,2.0,3.0,81,0.00,,,0.05,276.000000,,2013-08-06 15:44:00,
2013-08-06 11:52:00,73.0,67.0,-100.00,North,0,2.0,3.0,81,0.00,,,0.05,276.000000,,2013-08-06 15:52:00,
2013-08-06 12:02:00,73.0,67.0,-100.00,North,0,2.0,3.0,81,0.00,,,0.05,276.000000,,2013-08-06 16:02:00,
2013-08-06 12:43:00,79.0,69.0,-100.00,North,0,3.0,4.0,71,0.00,,,0.05,595.000000,,2013-08-06 16:43:00,
2013-08-06 12:52:00,79.0,69.0,-100.00,North,0,3.0,4.0,71,0.00,,,0.05,595.000000,,2013-08-06 16:52:00,
2013-08-06 13:02:00,79.0,69.0,-100.00,North,0,3.0,4.0,71,0.00,,,0.05,595.000000,,2013-08-06 17:02:00,
2013-08-06 13:44:00,85.0,68.0,-100.00,North,2,3.0,5.0,56,0.00,,,0.05,881.000000,,2013-08-06 17:44:00,
2013-08-06 13:52:00,85.0,68.0,-100.00,North,2,3.0,5.0,56,0.00,,,0.05,881.000000,,2013-08-06 17:52:00,
2013-08-06 14:44:00,85.0,70.0,-100.00,North,0,2.0,6.0,60,0.00,,,0.05,724.000000,,2013-08-06 18:44:00,
2013-08-06 14:52:00,85.0,70.0,-100.00,North,0,2.0,6.0,60,0.00,,,0.05,724.000000,,2013-08-06 18:52:00,
2013-08-06 15:01:00,85.0,70.0,-100.00,North,0,2.0,6.0,60,0.00,,,0.05,724.000000,,2013-08-06 19:01:00,
2013-08-06 15:32:00,83.0,66.0,-100.00,North,2,3.0,6.0,56,0.00,,,0.05,739.000000,,2013-08-06 19:32:00,
2013-08-06 15:42:00,83.0,66.0,-100.00,North,2,3.0,6.0,56,0.00,,,0.05,739.000000,,2013-08-06 19:42:00,
2013-08-06 15:52:00,83.0,66.0,-100.00,North,2,3.0,6.0,56,0.00,,,0.05,739.000000,,2013-08-06 19:52:00,
2013-08-06 16:01:00,83.0,66.0,-100.00,North,2,3.0,6.0,56,0.00,,,0.05,739.000000,,2013-08-06 20:01:00,
2013-08-06 16:32:00,86.0,69.0,-100.00,North,2,5.0,9.0,58,0.00,,,0.05,975.000000,,2013-08-06 20:32:00,
2013-08-06 16:44:00,86.0,69.0,-100.00,North,2,5.0,9.0,58,0.00,,,0.05,975.000000,,2013-08-06 20:44:00,
2013-08-06 16:52:00,86.0,69.0,-100.00,North,2,5.0,9.0,58,0.00,,,0.05,975.000000,,2013-08-06 20:52:00,
2013-08-06 17:01:00,86.0,69.0,-100.00,North,2,5.0,9.0,58,0.00,,,0.05,975.000000,,2013-08-06 21:01:00,
2013-08-06 17:43:00,84.0,70.0,-100.00,North,2,4.0,8.0,62,0.00,,,0.05,568.000000,,2013-08-06 21:43:00,
2013-08-06 17:52:00,84.0,70.0,-100.00,North,2,4.0,8.0,62,0.00,,,0.05,568.000000,,2013-08-06 21:52:00,
2013-08-06 18:01:00,84.0,70.0,-100.00,North,2,4.0,8.0,62,0.00,,,0.05,568.000000,,2013-08-06 22:01:00,
2013-08-06 18:32:00,80.0,71.0,-100.00,North,1,2.0,6.0,73,0.00,,,0.05,231.000000,,2013-08-06 22:32:00,
2013-08-06 18:43:00,80.0,71.0,-100.00,North,1,2.0,6.0,73,0.00,,,0.05,231.000000,,2013-08-06 22:43:00,
2013-08-06 18:53:00,80.0,71.0,-100.00,North,1,2.0,6.0,73,0.00,,,0.05,231.000000,,2013-08-06 22:53:00,
2013-08-06 19:01:00,80.0,71.0,-100.00,North,1,2.0,6.0,73,0.00,,,0.05,231.000000,,2013-08-06 23:01:00,
2013-08-06 19:43:00,78.0,72.0,-100.00,North,2,0.0,2.0,82,0.00,,,0.05,124.000000,,2013-08-06 23:43:00,
2013-08-06 19:52:00,78.0,72.0,-100.00,North,2,0.0,2.0,82,0.00,,,0.05,124.000000,,2013-08-06 23:52:00,
2013-08-06 20:01:00,78.0,72.0,-100.00,North,2,0.0,2.0,82,0.00,,,0.05,124.000000,,2013-08-07 00:01:00,
2013-08-06 20:32:00,75.0,70.0,-100.00,North,2,1.0,2.0,85,0.00,,,0.05,66.000000,,2013-08-07 00:32:00,
2013-08-06 20:43:00,75.0,70.0,-100.00,North,2,1.0,2.0,85,0.00,,,0.05,66.000000,,2013-08-07 00:43:00,
2013-08-06 20:52:00,75.0,70.0,-100.00,North,2,1.0,2.0,85,0.00,,,0.05,66.000000,,2013-08-07 00:52:00,
2013-08-06 21:01:00,75.0,70.0,-100.00,North,2,1.0,2.0,85,0.00,,,0.05,66.000000,,2013-08-07 01:01:00,
2013-08-06 21:32:00,73.0,68.0,-100.00,North,1,1.0,5.0,84,0.00,,,0.05,6.000000,,2013-08-07 01:32:00,
2013-08-06 21:43:00,73.0,68.0,-100.00,North,1,1.0,5.0,84,0.00,,,0.05,6.000000,,2013-08-07 01:43:00,
2013-08-06 21:53:00,73.0,68.0,-100.00,North,1,1.0,5.0,84,0.00,,,0.05,6.000000,,2013-08-07 01:53:00,
2013-08-06 22:02:00,73.0,68.0,-100.00,North,1,1.0,5.0,84,0.00,,,0.05,6.000000,,2013-08-07 02:02:00,
2013-08-06 22:33:00,72.0,69.0,-100.00,North,1,0.0,4.0,90,0.00,,,0.05,0.000000,,2013-08-07 02:33:00,
2013-08-06 22:43:00,72.0,69.0,-100.00,North,1,0.0,4.0,90,0.00,,,0.05,0.000000,,2013-08-07 02:43:00,
2013-08-06 22:53:00,72.0,69.0,-100.00,North,1,0.0,4.0,90,0.00,,,0.05,0.000000,,2013-08-07 02:53:00,
2013-08-06 23:01:00,72.0,69.0,-100.00,North,1,0.0,4.0,90,0.00,,,0.05,0.000000,,2013-08-07 03:01:00,
2013-08-06 23:43:00,72.0,69.0,-100.00,North,2,0.0,3.0,91,0.00,,,0.05,0.000000,,2013-08-07 03:43:00,
2013-08-06 23:52:00,72.0,69.0,-100.00,North,2,0.0,3.0,91,0.00,,,0.05,0.000000,,2013-08-07 03:52:00,